Ellensburg, WA
on Wednesday, December 26, 2012

Wednesday
Previous Day Next Day
Daily Summary
 ActualAverage (KYKM)Record (KYKM)
Temperature
Mean Temperature °F 28°F  
Max Temperature 34°F 34°F 67°F (1980)
Min Temperature 28°F 21°F -5°F (1988)
Degree Days
Heating Degree Days 34 37  
Month to date heating degree days 943  
Since 1 July heating degree days 2476  
Cooling Degree Days 0 0  
Month to date cooling degree days 0  
Year to date cooling degree days 472  
Moisture
Dew Point 26°F   
Average Humidity 83    
Maximum Humidity 88    
Minimum Humidity 75    
Precipitation
Precipitation 0.27 in 0.05 in 0.41 in (2006)
Month to date precipitation 1.30  
Year to date precipitation 8.02  
Snow
Snow 0.00 in 0.30 in 5.00 in (1996)
Month to date snowfall 7.9  
Year to date snowfall 20.1  
Since 1 July snowfall 11.5  
Snow Depth in   
Wind
Wind Speed 1 mph   
Max Wind Speed 5 mph   
Max Gust Speed mph   
Visibility 3 miles   
Events Fog , Snow   

Key: T is trace of precipitation, MM is missing value
Source: NWS Daily Summary
Time(PST)TemperatureDew PointHumidity Pressure Visibility Wind DirectionWind SpeedGust SpeedPrecipitationEvents Conditions
12:53 AM 30.0°F 25.0°F 82% 29.83 in 5.0 miles Calm Calm - 0.00 in Snow Light Snow
1:53 AM 28.9°F 25.0°F 85% 29.82 in 3.0 miles Calm Calm - 0.00 in Snow Light Snow
2:41 AM 28.4°F 24.8°F 86% 29.77 in 7.0 miles Calm Calm - 0.00 in   Overcast
2:53 AM 28.9°F 25.0°F 85% 29.83 in 7.0 miles Calm Calm - 0.00 in   Overcast
3:00 AM 28.4°F 24.8°F 86% 29.78 in 8.0 miles Calm Calm - N/A   Overcast
3:28 AM 28.4°F 24.8°F 86% 29.77 in 4.0 miles Calm Calm - N/A   Overcast
3:53 AM 30.0°F 25.0°F 82% 29.82 in 4.0 miles Calm Calm - N/A   Haze
4:33 AM 28.4°F 24.8°F 86% 29.77 in 3.0 miles Calm Calm - N/A   Overcast
4:53 AM 28.9°F 25.0°F 85% 29.82 in 3.0 miles Calm Calm - N/A   Overcast
5:04 AM 28.4°F 24.8°F 86% 29.76 in 3.0 miles Calm Calm - N/A   Overcast
5:53 AM 28.9°F 25.0°F 85% 29.82 in 3.0 miles North 3.5 mph - N/A   Overcast
6:46 AM 28.4°F 24.8°F 86% 29.77 in 4.0 miles Calm Calm - 0.00 in   Haze
6:53 AM 28.9°F 24.1°F 82% 29.83 in 4.0 miles Calm Calm - 0.00 in Snow Light Snow
7:03 AM 28.4°F 24.8°F 86% 29.78 in 3.0 miles West 3.5 mph - 0.00 in Snow Light Snow
7:16 AM 28.4°F 24.8°F 86% 29.78 in 2.0 miles Calm Calm - 0.00 in Snow Light Snow
7:41 AM 28.4°F 24.8°F 86% 29.78 in 3.0 miles Calm Calm - 0.00 in Snow Light Snow
7:53 AM 30.0°F 25.0°F 82% 29.83 in 2.0 miles NNE 3.5 mph - 0.00 in Snow Light Snow
8:12 AM 30.2°F 24.8°F 80% 29.78 in 1.2 miles NNE 3.5 mph - 0.00 in Snow Light Snow
8:26 AM 30.2°F 26.6°F 86% 29.79 in 3.0 miles Calm Calm - 0.00 in Snow Light Snow
8:53 AM 30.9°F 26.1°F 82% 29.85 in 8.0 miles Calm Calm - 0.00 in   Overcast
9:28 AM 30.2°F 26.6°F 86% 29.81 in 2.0 miles Calm Calm - 0.00 in Snow Light Snow
9:41 AM 32.0°F 26.6°F 80% 29.81 in 3.0 miles Calm Calm - 0.00 in Snow Light Snow
9:50 AM 32.0°F 26.6°F 80% 29.82 in 2.5 miles Calm Calm - 0.00 in Snow Light Snow
9:53 AM 32.0°F 27.0°F 82% 29.87 in 2.5 miles Calm Calm - 0.00 in Snow Light Snow
10:37 AM 32.0°F 26.6°F 80% 29.82 in 1.8 miles Calm Calm - 0.00 in Snow Light Snow
10:53 AM 33.1°F 28.0°F 82% 29.86 in 2.0 miles Calm Calm - 0.00 in Snow Light Snow
11:12 AM 33.8°F 28.4°F 81% 29.81 in 3.0 miles Calm Calm - 0.00 in Snow Light Snow
11:39 AM 32.0°F 26.6°F 80% 29.81 in 3.0 miles Calm Calm - 0.00 in Snow Light Snow
11:53 AM 32.0°F 27.0°F 82% 29.86 in 2.5 miles Calm Calm - 0.00 in Snow Light Snow
12:02 PM 33.8°F 26.6°F 75% 29.81 in 3.0 miles Calm Calm - 0.00 in Snow Light Snow
12:15 PM 33.8°F 26.6°F 75% 29.80 in 4.0 miles Calm Calm - 0.00 in   Haze
12:26 PM 33.8°F 28.4°F 81% 29.80 in 2.0 miles Calm Calm - 0.00 in Snow Light Snow
12:33 PM 33.8°F 28.4°F 81% 29.80 in 3.0 miles Calm Calm - 0.00 in Snow Light Snow
12:48 PM 33.8°F 28.4°F 81% 29.80 in 2.5 miles Calm Calm - 0.00 in Snow Light Snow
12:53 PM 34.0°F 28.0°F 79% 29.84 in 2.0 miles Calm Calm - 0.00 in Snow Light Snow
1:09 PM 33.8°F 28.4°F 81% 29.80 in 2.5 miles Calm Calm - 0.07 in Snow Light Snow
1:17 PM 33.8°F 28.4°F 81% 29.80 in 3.0 miles Calm Calm - 0.10 in   Haze
1:53 PM 34.0°F 28.0°F 79% 29.85 in 5.0 miles Calm Calm - 0.20 in   Haze
2:53 PM 32.0°F 28.0°F 85% 29.87 in 1.0 miles Calm Calm - 0.06 in   Overcast
3:00 PM 32.0°F 28.4°F 87% 29.82 in 0.8 miles Calm Calm - 0.01 in   Overcast
3:53 PM 30.9°F 26.1°F 82% 29.88 in 0.2 miles Calm Calm - 0.01 in   Haze
4:10 PM 30.2°F 26.6°F 86% 29.83 in 1.2 miles SSE 3.5 mph - N/A   Overcast
5:07 PM 30.2°F 26.6°F 86% 29.84 in 0.8 miles NNE 3.5 mph - N/A   Overcast
5:53 PM 30.0°F 26.1°F 85% 29.91 in 0.2 miles Calm Calm - N/A Fog Light Freezing Fog
6:01 PM 30.2°F 26.6°F 86% 29.85 in 1.2 miles Calm Calm - N/A   Overcast
6:05 PM 30.2°F 26.6°F 86% 29.85 in 3.0 miles Calm Calm - N/A   Overcast
6:17 PM 30.2°F 26.6°F 86% 29.86 in 4.0 miles NW 3.5 mph - N/A   Overcast
6:50 PM 30.2°F 26.6°F 86% 29.86 in 1.8 miles NW 4.6 mph - N/A   Overcast
6:53 PM 30.0°F 26.1°F 85% 29.91 in 1.5 miles NW 4.6 mph - N/A   Overcast
7:00 PM 30.2°F 26.6°F 86% 29.86 in 3.0 miles NNW 4.6 mph - N/A   Overcast
7:53 PM 30.0°F 26.1°F 85% 29.92 in 8.0 miles NW 3.5 mph - N/A   Overcast
8:20 PM 30.2°F 26.6°F 86% 29.87 in 9.0 miles Calm Calm - N/A   Overcast
8:53 PM 30.9°F 26.1°F 82% 29.93 in 9.0 miles Calm Calm - N/A   Overcast
9:53 PM 30.0°F 26.1°F 85% 29.94 in 5.0 miles Calm Calm - 0.00 in Snow Light Snow
10:41 PM 30.2°F 26.6°F 86% 29.91 in 4.0 miles Calm Calm - 0.00 in   Overcast
10:48 PM 30.2°F 24.8°F 80% 29.91 in 4.0 miles Calm Calm - 0.00 in   Haze
10:53 PM 30.0°F 25.0°F 82% 29.96 in 3.0 miles Calm Calm - 0.00 in   Haze
11:04 PM 30.2°F 26.6°F 86% 29.91 in 2.0 miles Calm Calm - N/A   Overcast
11:16 PM 30.2°F 26.6°F 86% 29.91 in 1.2 miles Calm Calm - N/A   Overcast
11:30 PM 30.2°F 24.8°F 80% 29.91 in 0.8 miles Calm Calm - N/A   Haze
11:53 PM 30.0°F 27.0°F 88% 29.97 in 1.0 miles Calm Calm - N/A   Mist
Moon Phase
Dec. 26 Dec. 28 Jan. 04 Jan. 11 Jan. 18
Sunrise:07:47 AM (PST) Moon Rise:03:18 PM (PST)12/26
Sunset:04:18 PM (PST) Moon Set:06:13 AM (PST)12/26

Copyright © 2014 The Weather Underground, Inc.